This is the latest recevied weather packets stored in our database for station/object IW1QQG-13. If no packets are shown the sender has not sent any weather packets the latest 10 day(s).
| Time | Temp. | Humidity | Pressure | Rain* | Wind** | Luminosity | Snow |
|---|---|---|---|---|---|---|---|
| 1776885968 | 13.89° C | 58% | 1019 hPa | 0 mm | - | 0 W/m² | - |
| 1776885368 | 12.78° C | 65% | 1019 hPa | 0 mm | - | 0 W/m² | - |
| 1776884768 | 12.78° C | 67% | 1018.6 hPa | 0 mm | - | 0 W/m² | - |
| 1776884168 | 13.33° C | 69% | 1018.6 hPa | 0 mm | - | 0 W/m² | - |
| 1776883568 | 12.78° C | 67% | 1018.3 hPa | 0 mm | - | 0 W/m² | - |
| 1776882968 | 13.33° C | 71% | 1018.3 hPa | 0 mm | - | 0 W/m² | - |
| 1776882368 | 13.33° C | 70% | 1018.3 hPa | 0 mm | - | 2 W/m² | - |
| 1776881768 | 13.33° C | 74% | 1017.9 hPa | 0 mm | - | 5 W/m² | - |
| 1776881168 | 13.33° C | 74% | 1017.9 hPa | 0 mm | - | 11 W/m² | - |
| 1776880568 | 13.33° C | 78% | 1017.9 hPa | 0 mm | - | 17 W/m² | - |
| 1776879968 | 13.89° C | 77% | 1017.9 hPa | 0 mm | - | 27 W/m² | - |
| 1776879368 | 14.44° C | 77% | 1017.6 hPa | 0 mm | - | 36 W/m² | - |
| 1776878768 | 14.44° C | 80% | 1017.6 hPa | 0 mm | - | 42 W/m² | - |
| 1776878168 | 14.44° C | 80% | 1017.6 hPa | 0 mm | - | 60 W/m² | - |
| 1776877569 | 14.44° C | 73% | 1017.6 hPa | 0 mm | - | 70 W/m² | - |
| 1776876968 | 14.44° C | 74% | 1017.6 hPa | 0 mm | - | 60 W/m² | - |
| 1776876368 | 14.44° C | 74% | 1017.6 hPa | 0 mm | - | 66 W/m² | - |
| 1776875768 | 14.44° C | 77% | 1017.6 hPa | 0 mm | - | 73 W/m² | - |
| 1776875168 | 14.44° C | 81% | 1017.6 hPa | 0 mm | - | 77 W/m² | - |
| 1776874568 | 14.44° C | 80% | 1017.6 hPa | 0 mm | - | 85 W/m² | - |
| 1776873968 | 14.44° C | 81% | 1017.9 hPa | 0 mm | - | 102 W/m² | - |
| 1776873368 | 13.89° C | 82% | 1017.6 hPa | 0 mm | - | 85 W/m² | - |
* Rain latest hour (hover to see other rain measurements)
** Current wind speed in m/s (hover to see current wind gust speed)